Observations for Trim Patrick St
| Time | AQI | Temp °C | Hum % | Pres Pa | CO μg/m³ | H₂S μg/m³ | NO μg/m³ | NO₂ μg/m³ | O₃ μg/m³ | SO₂ μg/m³ | PM1 μg/m³ | PM2.5 μg/m³ | PM10 μg/m³ |
|---|---|---|---|---|---|---|---|---|---|---|---|---|---|
| Saturday 8 August 2026 | |||||||||||||
| 09:12 | 1 | 22.5 | 56 | 74,342 | 0.1 | 0 | 3.26 | 9.99 | 19.22 | 5 | 2.86 | 8.27 | 9.1 |
| 09:11 | 1 | 22.5 | 56 | 74,445 | 0.08 | 0 | 2.96 | 11.92 | 22.62 | 4.07 | 2.86 | 8.25 | 9.08 |
| 09:08 | 1 | 22.3 | 57 | 74,544 | 0.12 | 0 | 3.06 | 13.03 | 20.77 | 4.14 | 2.86 | 7.48 | 8.22 |
| 09:07 | 1 | 22.2 | 57 | 74,564 | 0.09 | 0 | 3.35 | 12.06 | 26.73 | 4.06 | 2.86 | 8.22 | 9.05 |
| 09:05 | 1 | 22.2 | 57 | 74,638 | 0.06 | 0 | 3.28 | 12.2 | 22.03 | 3.98 | 2 | 5.98 | 6.58 |
| 09:03 | 1 | 22 | 57 | 74,764 | 0.1 | 0 | 3.37 | 10.87 | 24.51 | 3.57 | 3.71 | 8.19 | 9.01 |
| 09:02 | 1 | 21.9 | 58 | 74,833 | 0.08 | 0 | 3.21 | 10.58 | 23.2 | 3.91 | 3.71 | 8.17 | 8.99 |
| 09:00 | 1 | 21.8 | 58 | 74,988 | 0.09 | 0 | 3.23 | 11.66 | 25.09 | 3.69 | 2.86 | 7.42 | 8.16 |
| 08:58 | 1 | 21.7 | 58 | 75,171 | 0.08 | 0 | 3.31 | 10.95 | 24.06 | 3.1 | 3.71 | 8.15 | 8.96 |
| 08:55 | 1 | 21.5 | 59 | 75,605 | 0.1 | 0 | 3.45 | 12.11 | 24.47 | 3.41 | 2.86 | 8.07 | 8.88 |
| 08:54 | 1 | 21.4 | 59 | 75,764 | 0.12 | 0 | 3.29 | 12.13 | 22.52 | 3.4 | 4.57 | 8.8 | 9.68 |
| 08:53 | 1 | 21.3 | 59 | 75,937 | 0.12 | 0 | 3.77 | 11.59 | 21.04 | 3.57 | 3.71 | 8.09 | 8.89 |
| 08:52 | 1 | 21.3 | 59 | 76,116 | 0.12 | 0 | 3.89 | 12.52 | 19.89 | 3.18 | 3.71 | 8.79 | 9.67 |
| 08:51 | 1 | 21.2 | 59 | 76,344 | 0.11 | 0 | 3.89 | 11.6 | 23.1 | 2.81 | 2.86 | 7.32 | 8.05 |
| 08:47 | 1 | 21 | 60 | 77,412 | 0.11 | 0 | 3.36 | 11.45 | 21.67 | 2.79 | 2.86 | 7.28 | 8.01 |
| 08:46 | 1 | 20.9 | 60 | 77,738 | 0.1 | 0 | 3.39 | 10.82 | 25.43 | 2.82 | 2.86 | 7.99 | 8.79 |
| 08:45 | 1 | 20.9 | 60 | 78,104 | 0.1 | 0 | 3.4 | 11.15 | 19.1 | 2.69 | 4.57 | 8.74 | 9.62 |
| 08:44 | 1 | 20.8 | 61 | 78,490 | 0.1 | 0 | 3.33 | 11.18 | 23.73 | 2.53 | 2.86 | 8.71 | 9.58 |
| 08:43 | 1 | 20.8 | 61 | 78,897 | 0.1 | 0 | 3.17 | 11.71 | 21.44 | 2.7 | 3.71 | 7.21 | 7.93 |
| 08:42 | 1 | 20.7 | 61 | 79,288 | 0.1 | 0 | 3.26 | 12.16 | 23.61 | 3.28 | 2.86 | 7.92 | 8.71 |